Date_and_time,latitude,longitude,wind_speed,RelWindDirFrom,WindDirFrom,air_pressure,air_temperature,relative_humidity,Temp,platform_speed_wrt_ground,air_pressure_at_mean_sea_level,platform_orientation
2019-03-06 23:50,50.6304416666667,-96.9807666666667,4.7,6.5,299,999.39,-11.0,54,0.56,0.0,1028.76,165.5
2019-03-07 00:00,50.6304433333333,-96.9807683333333,4.7,6.4,304,999.23,-11.1,55,0.56,0.0,1028.57,90.0
2019-03-07 00:10,50.6304416666667,-96.98077,4.6,7.4,299,999.30,-11.4,56,0.57,0.0,1028.68,90.0
2019-03-07 00:20,50.6304416666667,-96.98077,3.7,5.0,296,999.46,-11.8,57,0.57,0.0,1028.87,90.0
2019-03-07 00:30,50.6304416666667,-96.98077,4.8,6.9,312,999.39,-12.0,57,0.57,0.0,1028.81,90.0
2019-03-07 00:40,50.6304433333333,-96.9807683333333,4.7,6.7,324,999.39,-12.3,58,0.57,0.0,1028.83,90.0
2019-03-07 00:50,50.6304416666667,-96.9807683333333,6.3,8.1,338,999.35,-12.6,59,0.57,0.0,1028.81,90.0
2019-03-07 01:00,50.6304433333333,-96.9807683333333,5.5,8.1,325,999.61,-12.7,59,0.57,0.0,1029.09,90.0
2019-03-07 01:10,50.6304433333333,-96.98077,4.9,6.9,303,999.82,-12.7,58,0.57,0.0,1029.30,90.0
2019-03-07 01:20,50.6304433333333,-96.98077,5.2,7.5,314,999.85,-12.9,58,0.59,0.0,1029.34,90.0
2019-03-07 01:30,50.6304516666667,-96.98079,6.7,8.8,343,999.78,-13.5,60,0.59,0.0,1029.31,90.0
2019-03-07 01:40,50.6304233333333,-96.980785,6.2,7.8,353,999.85,-14.2,62,0.59,0.0,1029.43,90.0
2019-03-07 01:50,50.6304366666667,-96.9807783333333,6.2,8.4,14,999.98,-14.8,64,0.58,0.0,1029.60,90.0
2019-03-07 02:00,50.6304433333333,-96.9807633333333,4.8,5.8,22,1000.13,-16.1,68,0.59,0.0,1029.85,90.0
2019-03-07 02:10,50.6304483333333,-96.98077,7.2,8.9,38,999.93,-16.6,72,0.59,0.0,1029.70,90.0
2019-03-07 02:20,50.6304483333333,-96.9807716666667,7.8,8.6,25,999.78,-16.8,75,0.59,0.0,1029.57,90.0
2019-03-07 02:30,50.6304466666667,-96.98077,5.1,6.9,17,999.91,-17.0,76,0.60,0.0,1029.73,90.0
2019-03-07 02:40,50.6304466666667,-96.9807683333333,1.1,3.1,68,1000.01,-16.6,76,0.60,0.0,1029.83,90.0
2019-03-07 02:50,50.6304466666667,-96.98077,2.3,4.6,178,1000.04,-17.3,77,0.60,0.0,1029.92,90.0
2019-03-07 03:00,50.6304466666667,-96.98077,3.2,4.7,180,1000.31,-17.1,78,0.60,0.0,1030.18,360.0
2019-03-07 03:10,50.63043,-96.9808016666667,2.4,3.3,101,1000.23,-16.5,79,0.60,0.0,1030.07,360.0
2019-03-07 03:20,50.6304383333333,-96.98077,2.7,3.7,66,1000.28,-16.7,79,0.60,0.0,1030.17,360.0
2019-03-07 03:30,50.630435,-96.98077,1.6,2.7,35,1000.30,-17.6,80,0.59,0.0,1030.28,360.0
2019-03-07 03:40,50.6304383333333,-96.9807666666667,0.9,2.0,83,1000.34,-17.2,83,0.60,0.0,1030.33,360.0
2019-03-07 03:50,50.63044,-96.9807683333333,2.8,3.9,241,1000.49,-17.3,84,0.60,0.0,1030.58,360.0
2019-03-07 04:00,50.63044,-96.9807883333333,3.7,4.4,236,1000.50,-17.5,83,0.60,0.0,1030.63,270.0
2019-03-07 04:10,50.63044,-96.9807816666667,5.0,6.2,228,1000.61,-18.1,84,0.60,0.0,1030.78,270.0
2019-03-07 04:20,50.6304466666667,-96.9807783333333,5.4,6.9,240,1000.62,-18.0,83,0.60,0.0,1030.80,270.0
2019-03-07 04:30,50.630445,-96.9807766666667,4.7,6.0,241,1000.62,-17.6,82,0.60,0.0,1030.76,270.0
2019-03-07 04:40,50.6304483333333,-96.9807766666667,4.4,5.5,240,1000.63,-17.3,81,0.58,0.0,1030.79,270.0
2019-03-07 04:50,50.6304466666667,-96.980775,5.0,6.0,235,1000.64,-17.4,81,0.58,0.0,1030.80,270.0
2019-03-07 05:00,50.6304466666667,-96.9807733333333,5.6,6.5,224,1000.65,-17.4,81,0.59,0.0,1030.76,347.4
2019-03-07 05:10,50.6304466666667,-96.9807733333333,6.1,7.1,217,1000.57,-17.4,81,0.59,0.0,1030.70,347.4
2019-03-07 05:20,50.630445,-96.9807733333333,5.3,6.4,217,1000.55,-17.3,81,0.58,0.0,1030.71,347.4
2019-03-07 05:30,50.630435,-96.980775,5.8,6.7,208,1000.39,-17.3,81,0.58,0.0,1030.54,347.4
2019-03-07 05:40,50.63045,-96.9808066666667,5.6,6.7,208,1000.31,-17.1,81,0.57,0.0,1030.45,347.4
2019-03-07 05:50,50.6304433333333,-96.9807766666667,5.1,5.8,212,1000.35,-17.1,81,0.57,0.0,1030.50,347.4
2019-03-07 06:00,50.6304383333333,-96.9807683333333,5.3,6.3,211,1000.32,-17.2,81,0.57,0.0,1030.51,142.0
2019-03-07 06:10,50.630435,-96.980715,5.4,7.0,215,1000.21,-17.2,81,0.57,0.0,1030.39,142.0
2019-03-07 06:20,50.6304383333333,-96.980775,5.7,6.9,208,1000.24,-17.4,81,0.57,0.0,1030.41,142.0
2019-03-07 06:30,50.6304383333333,-96.9807766666667,4.7,5.3,210,1000.20,-17.5,82,0.57,0.0,1030.36,142.0
2019-03-07 06:40,50.6304333333333,-96.9807783333333,4.5,5.2,210,1000.11,-17.6,82,0.56,0.0,1030.28,142.0
2019-03-07 06:50,50.63042,-96.9807983333333,4.0,4.8,216,999.98,-17.7,82,0.56,0.0,1030.15,142.0
2019-03-07 07:00,50.630435,-96.980775,5.1,6.3,220,1000.01,-17.7,82,0.56,0.0,1030.18,113.6
2019-03-07 07:10,50.6304333333333,-96.9807733333333,4.6,5.3,227,1000.05,-18.0,83,0.56,0.0,1030.23,113.6
2019-03-07 07:20,50.6304366666667,-96.980775,4.8,5.4,228,1000.02,-18.4,83,0.56,0.0,1030.22,113.6
2019-03-07 07:30,50.6304383333333,-96.98078,4.9,5.6,231,999.95,-18.3,84,0.56,0.0,1030.13,113.6
2019-03-07 07:40,50.6304366666667,-96.9807766666667,4.9,5.8,236,999.87,-18.3,84,0.56,0.0,1030.06,113.6
2019-03-07 07:50,50.6304383333333,-96.9807766666667,4.1,5.3,241,999.73,-18.3,84,0.56,0.0,1029.92,113.6
2019-03-07 08:00,50.63044,-96.9807783333333,4.5,5.2,240,999.69,-18.4,84,0.56,0.0,1029.88,240.8
2019-03-07 08:10,50.63044,-96.9807783333333,3.9,5.1,234,999.73,-18.7,84,0.56,0.0,1029.95,240.8
2019-03-07 08:20,50.63045,-96.98076,3.8,4.9,235,999.78,-19.2,84,0.56,0.0,1030.04,240.8
2019-03-07 08:30,50.63046,-96.98076,3.3,4.3,234,999.79,-19.3,85,0.57,0.0,1030.06,240.8
2019-03-07 08:40,50.6304533333333,-96.9807816666667,2.6,3.5,212,999.80,-20.2,84,0.56,0.0,1030.13,240.8
2019-03-07 08:50,50.6304516666667,-96.9807766666667,2.4,2.9,200,999.74,-20.7,85,0.56,0.0,1030.11,240.8
2019-03-07 09:00,50.630455,-96.980775,3.1,3.9,203,999.71,-20.7,85,0.56,0.0,1030.09,318.7
2019-03-07 09:10,50.630445,-96.9807516666667,3.7,4.2,202,999.65,-20.2,86,0.57,0.0,1030.02,318.7
2019-03-07 09:20,50.6304383333333,-96.9807616666667,3.7,4.4,208,999.66,-20.0,85,0.56,0.0,1030.01,318.7
2019-03-07 09:30,50.6304366666667,-96.9807666666667,4.1,4.6,213,999.66,-20.1,85,0.56,0.0,1030.01,318.7
2019-03-07 09:40,50.6304383333333,-96.9807733333333,4.1,4.6,215,999.61,-20.2,84,0.56,0.0,1029.98,318.7
2019-03-07 09:50,50.63045,-96.980775,4.6,5.3,212,999.59,-20.4,84,0.56,0.0,1029.97,318.7
2019-03-07 10:00,50.6304416666667,-96.9807816666667,4.4,5.4,216,999.61,-20.4,83,0.56,0.0,1030.01,299.2
2019-03-07 10:10,50.6304383333333,-96.9807766666667,5.2,6.6,227,999.63,-20.2,83,0.56,0.0,1030.05,299.2
2019-03-07 10:20,50.6304366666667,-96.9807766666667,5.6,6.9,227,999.69,-20.2,82,0.55,0.0,1030.11,299.2
2019-03-07 10:30,50.6304316666667,-96.9807633333333,5.2,6.3,225,999.71,-20.5,82,0.55,0.0,1030.20,299.2
2019-03-07 10:40,50.6304316666667,-96.9807666666667,5.1,6.5,228,999.70,-20.6,82,0.55,0.0,1030.24,299.2
2019-03-07 10:50,50.6304366666667,-96.9807683333333,4.8,5.7,222,999.69,-20.7,81,0.55,0.0,1030.23,299.2
2019-03-07 11:00,50.6304333333333,-96.98077,5.5,7.2,222,999.72,-20.7,81,0.55,0.0,1030.22,130.6
2019-03-07 11:10,50.6304383333333,-96.9807716666667,5.2,7.0,231,999.63,-20.5,81,0.55,0.0,1030.11,130.6
2019-03-07 11:20,50.63044,-96.9807733333333,5.3,7.1,231,999.63,-20.5,81,0.56,0.0,1030.12,130.6
2019-03-07 11:30,50.6304416666667,-96.9807716666667,5.4,6.8,232,999.68,-20.7,81,0.56,0.0,1030.20,130.6
2019-03-07 11:40,50.6304383333333,-96.9807716666667,5.5,6.9,229,999.72,-20.9,81,0.56,0.0,1030.25,130.6
2019-03-07 11:50,50.6304383333333,-96.9807683333333,5.3,6.0,228,999.74,-21.2,81,0.55,0.0,1030.29,130.6
2019-03-07 12:00,50.6304483333333,-96.98077,6.3,7.9,223,999.80,-21.4,81,0.55,0.0,1030.35,131.7
2019-03-07 12:10,50.6304416666667,-96.9807716666667,6.2,8.4,222,999.81,-21.3,81,0.55,0.0,1030.36,131.7
2019-03-07 12:20,50.6304216666667,-96.9807733333333,6.4,8.0,225,999.78,-21.1,82,0.54,0.0,1030.33,131.7
2019-03-07 12:30,50.6304116666667,-96.9807883333333,6.8,8.6,224,999.68,-20.6,82,0.55,0.0,1030.21,131.7
2019-03-07 12:40,50.6304316666667,-96.9807816666667,6.3,7.5,226,999.52,-20.4,82,0.54,0.0,1030.03,131.7
2019-03-07 12:50,50.6304366666667,-96.980775,5.8,7.1,226,999.35,-20.3,82,0.54,0.0,1029.85,131.7
2019-03-07 13:00,50.6304466666667,-96.9807733333333,4.7,6.1,231,999.27,-20.2,82,0.54,0.0,1029.75,54.7
2019-03-07 13:10,50.6304466666667,-96.98077,4.3,5.1,224,999.19,-20.3,82,0.53,0.0,1029.68,54.7
2019-03-07 13:20,50.630445,-96.98077,4.2,5.8,218,999.09,-20.5,82,0.53,0.0,1029.60,54.7
2019-03-07 13:30,50.6304466666667,-96.9807683333333,3.6,4.5,212,999.01,-20.8,81,0.53,0.0,1029.55,54.7
2019-03-07 13:40,50.6304466666667,-96.9807683333333,3.4,4.2,191,998.98,-21.5,80,0.53,0.0,1029.58,54.7
2019-03-07 13:50,50.63046,-96.9807733333333,3.4,4.3,200,998.99,-22.3,79,0.52,0.0,1029.65,54.7
2019-03-07 14:00,50.6304583333333,-96.98077,4.0,4.8,204,998.97,-21.4,80,0.52,0.0,1029.57,9.8
2019-03-07 14:10,50.6304566666667,-96.9807683333333,3.8,4.7,192,998.90,-21.2,79,0.52,0.0,1029.47,9.8
2019-03-07 14:20,50.6304533333333,-96.9807666666667,3.8,4.6,187,998.92,-20.6,79,0.52,0.0,1029.43,9.8
2019-03-07 14:30,50.630455,-96.9807683333333,4.9,6.1,193,999.02,-20.4,79,0.52,0.0,1029.50,9.8
2019-03-07 14:40,50.6304533333333,-96.9807666666667,4.9,6.0,195,998.90,-19.5,79,0.51,0.0,1029.32,9.8
2019-03-07 14:50,50.6304533333333,-96.9807683333333,4.5,5.9,195,998.77,-18.8,78,0.51,0.0,1029.13,9.8
2019-03-07 15:00,50.6304516666667,-96.98077,3.8,5.9,193,998.61,-18.1,76,0.51,0.0,1028.93,360.0
2019-03-07 15:10,50.63041,-96.9807566666667,4.0,5.0,171,998.50,-18.0,76,0.51,0.0,1028.83,360.0
2019-03-07 15:20,50.6304483333333,-96.980785,5.2,6.4,165,998.43,-18.0,75,0.50,0.0,1028.78,360.0
2019-03-07 15:30,50.6304466666667,-96.9807733333333,5.7,6.5,167,998.36,-17.8,75,0.50,0.0,1028.73,360.0
2019-03-07 15:40,50.6304266666667,-96.98078,6.7,7.6,165,998.39,-17.5,74,0.50,0.0,1028.79,360.0
2019-03-07 15:50,50.630425,-96.9807766666667,6.7,7.7,171,998.33,-17.1,73,0.51,0.0,1028.64,360.0
2019-03-07 16:00,50.630425,-96.9807783333333,6.0,6.9,171,998.20,-16.7,72,0.51,0.0,1028.48,212.1
2019-03-07 16:10,50.630525,-96.9808933333333,6.2,7.7,161,998.23,-16.2,71,0.51,0.0,1028.44,212.1
2019-03-07 16:20,50.6304466666667,-96.980785,6.5,8.5,155,998.27,-15.8,71,0.51,0.0,1028.46,212.1
2019-03-07 16:30,50.6304483333333,-96.98078,5.8,6.6,155,998.25,-15.9,73,0.51,0.0,1028.38,212.1
2019-03-07 16:40,50.6304483333333,-96.98077,5.4,6.7,167,998.05,-15.3,71,0.51,0.0,1028.11,212.1
2019-03-07 16:50,50.630445,-96.9807783333333,5.6,6.6,174,997.91,-14.2,65,0.50,0.0,1027.85,212.1
2019-03-07 17:00,50.6304416666667,-96.9807783333333,6.3,7.3,169,997.77,-13.8,63,0.50,0.0,1027.67,211.1
2019-03-07 17:10,50.6304383333333,-96.98078,7.6,9.5,171,997.74,-13.3,63,0.50,0.0,1027.62,211.1
2019-03-07 17:20,50.6304366666667,-96.9807816666667,8.8,10.4,175,997.65,-13.1,62,0.50,0.0,1027.51,211.1
2019-03-07 17:30,50.6304366666667,-96.9807833333333,9.0,10.6,173,997.61,-12.9,62,0.50,0.0,1027.43,211.1
2019-03-07 17:40,50.630435,-96.9807833333333,8.8,10.7,173,997.52,-12.7,61,0.49,0.0,1027.30,211.1
2019-03-07 17:50,50.6304333333333,-96.9807816666667,9.6,12.0,174,997.47,-12.6,61,0.49,0.0,1027.22,211.1
2019-03-07 18:00,50.6304333333333,-96.98078,11.0,13.7,176,997.38,-12.5,61,0.49,0.0,1027.10,207.4
2019-03-07 18:10,50.6304133333333,-96.9807766666667,12.5,15.4,183,997.31,-12.5,61,0.49,0.0,1027.00,207.4
2019-03-07 18:20,50.6304166666667,-96.98078,12.5,15.3,184,997.17,-12.3,60,0.50,0.0,1026.85,207.4
2019-03-07 18:30,50.6304033333333,-96.980765,12.1,14.5,180,997.06,-12.1,60,0.50,0.0,1026.68,207.4
2019-03-07 18:40,50.6304066666667,-96.9807783333333,11.3,13.8,178,996.99,-12.0,60,0.50,0.0,1026.55,207.4
2019-03-07 18:50,50.630415,-96.9807783333333,11.6,13.5,176,996.84,-11.9,60,0.50,0.0,1026.36,207.4
2019-03-07 19:00,50.6304183333333,-96.9807783333333,11.2,13.8,174,996.77,-11.7,60,0.50,0.0,1026.25,360.0
2019-03-07 19:10,50.6304166666667,-96.98078,12.4,15.0,180,996.59,-11.9,61,0.50,0.0,1026.06,360.0
2019-03-07 19:20,50.63042,-96.980785,13.4,15.8,183,996.50,-12.0,61,0.50,0.0,1025.97,360.0
2019-03-07 19:30,50.6304,-96.9807866666667,13.0,15.8,180,996.32,-11.9,61,0.50,0.0,1025.76,360.0
2019-03-07 19:40,50.630405,-96.9807783333333,12.2,14.5,184,996.06,-11.6,60,0.51,0.0,1025.48,360.0
2019-03-07 19:50,50.6304383333333,-96.9807883333333,12.4,15.2,183,995.89,-11.5,60,0.51,0.0,1025.29,360.0
2019-03-07 20:00,50.630435,-96.9807733333333,13.3,15.8,179,995.71,-11.7,61,0.51,0.0,1025.11,119.2
2019-03-07 20:10,50.6304316666667,-96.9807933333333,13.0,15.3,175,995.63,-11.8,60,0.51,0.0,1025.02,119.2
2019-03-07 20:20,50.63042,-96.9807933333333,12.7,14.9,177,995.50,-11.6,60,0.51,0.0,1024.87,119.2
2019-03-07 20:30,50.6304233333333,-96.9807883333333,12.3,14.1,181,995.28,-11.4,59,0.52,0.0,1024.63,119.2
2019-03-07 20:40,50.630425,-96.980785,12.1,15.1,182,995.15,-11.3,58,0.52,0.0,1024.48,119.2
2019-03-07 20:50,50.6304233333333,-96.980785,12.0,14.9,181,995.12,-11.3,58,0.52,0.0,1024.44,119.2
2019-03-07 21:00,50.630425,-96.980785,11.5,13.6,177,994.99,-11.3,59,0.53,0.0,1024.32,142.0
2019-03-07 21:10,50.6304416666667,-96.98076,11.7,15.0,180,994.84,-11.5,60,0.53,0.0,1024.18,142.0
2019-03-07 21:20,50.6304333333333,-96.9807733333333,13.5,16.9,182,994.64,-11.7,60,0.53,0.0,1023.97,142.0
2019-03-07 21:30,50.6304316666667,-96.9807783333333,12.8,15.5,187,994.64,-12.0,62,0.54,0.0,1023.98,142.0
2019-03-07 21:40,50.6304233333333,-96.9807733333333,11.3,14.6,185,994.54,-12.0,62,0.55,0.0,1023.86,142.0
2019-03-07 21:50,50.630425,-96.9807816666667,11.9,14.1,182,994.36,-12.0,63,0.56,0.0,1023.70,142.0
2019-03-07 22:00,50.6304266666667,-96.980785,9.5,11.7,184,994.42,-11.8,62,0.56,0.0,1023.75,360.0
2019-03-07 22:10,50.6304266666667,-96.9807883333333,11.2,15.4,181,994.28,-11.6,62,0.56,0.0,1023.59,360.0
2019-03-07 22:20,50.6304633333333,-96.9808,11.9,14.8,185,994.10,-11.8,63,0.56,0.0,1023.40,360.0
2019-03-07 22:30,50.6304383333333,-96.98078,12.5,17.1,183,993.98,-11.9,63,0.56,0.0,1023.27,360.0
2019-03-07 22:40,50.6304183333333,-96.9807866666667,12.0,16.5,184,993.88,-12.0,63,0.57,0.0,1023.18,360.0
2019-03-07 22:50,50.6304233333333,-96.9807883333333,12.7,17.2,183,993.77,-12.1,62,0.57,0.0,1023.07,360.0
2019-03-07 23:00,50.6304266666667,-96.980785,13.5,18.0,185,993.68,-12.4,64,0.57,0.0,1023.00,216.6
2019-03-07 23:10,50.63043,-96.9807833333333,13.1,17.9,182,993.56,-12.7,65,0.57,0.0,1022.90,216.6
2019-03-07 23:20,50.6304316666667,-96.9807783333333,12.1,16.2,183,993.49,-12.8,65,0.57,0.0,1022.86,216.6
2019-03-07 23:30,50.6304333333333,-96.9807766666667,11.1,14.2,182,993.44,-12.9,66,0.58,0.0,1022.82,216.6
